[[{"header":{"parameterUnit":"m.s-1","parameterCategory":1,"la1":30.2992,"la2":30.254,"lo1":-89.0895,"lo2":-89.0443,"dy":0.0025,"dx":0.0025,"nx":19,"ny":19,"refTime":"2026-05-15T09:00:00:Z","depth":0,"parameterNumber":2,"parameterNumberName":"U-component_of_WINDS"},"data":[0,0,0,-0.9729,-0.9728,-0.9697,-0.9697,-0.9664,-0.9664,0,0,0,0,0,0,0,0,0,0,0,-0.9742,-0.9742,-0.9729,-0.9728,-0.9697,-0.9697,-0.9664,-0.9664,0,0,0,0,0,0,0,0,0,0,0,-0.9742,-0.9742,-0.9742,-0.9728,-0.9697,-0.9697,-0.9664,-0.9685,0,0,0,0,0,0,0,0,0,0,-0.9715,-0.973,-0.9742,-0.9742,-0.9728,-0.9697,-0.9697,-0.9686,-0.9684,-0.9681,0,-0.9679,0,-0.9671,-0.9662,-0.9662,0,0,0,-0.9725,-0.9732,-0.972,-0.9742,-0.9728,-0.9697,-0.971,-0.9685,-0.9682,-0.9678,-0.9679,-0.9677,-0.9671,-0.9662,-0.9662,-0.9655,-0.9655,0,0,-0.9727,-0.9738,-0.9722,-0.9719,-0.9723,-0.9711,-0.9709,-0.9683,-0.9685,-0.9679,-0.9676,-0.967,-0.9662,-0.9661,-0.9655,-0.9655,0,0,0,-0.9734,-0.974,-0.9728,-0.972,-0.9714,-0.971,-0.9708,-0.9686,-0.9681,-0.9676,-0.967,-0.9662,-0.9661,-0.9655,-0.9655,-0.9671,0,0,0,-0.9735,-0.9744,-0.9729,-0.9736,-0.9715,-0.9699,-0.9711,-0.9683,-0.968,-0.967,-0.9662,-0.9661,-0.9655,-0.9655,-0.9671,-0.9677,0,0,0,-0.9743,-0.9745,-0.9741,-0.9737,-0.9723,-0.9699,-0.9693,-0.9682,-0.9676,-0.9662,-0.9661,-0.9655,-0.9655,-0.967,-0.9676,-0.9679,0,0,0,-0.9754,-0.9756,-0.9742,-0.9741,-0.9724,-0.971,-0.9693,-0.9682,-0.9672,-0.9661,-0.9655,-0.9655,-0.967,-0.9675,-0.9679,-0.9684,-0.9688,0,0,-0.9762,-0.9757,-0.9756,-0.9742,-0.9734,-0.9714,-0.9707,-0.9688,-0.9676,-0.9663,-0.9663,-0.9671,-0.9676,-0.9679,-0.9702,-0.9704,0,0,0,-0.9762,-0.9761,-0.9757,-0.9748,-0.9733,-0.9721,-0.9701,-0.9694,-0.9682,-0.9671,-0.9672,-0.9675,-0.9677,-0.9679,-0.9681,-0.9682,-0.9656,-0.9656,-0.9656,-0.9789,-0.9775,-0.9772,-0.9754,-0.9746,-0.9726,-0.9719,-0.9706,-0.9693,-0.9694,-0.969,-0.9705,-0.9708,-0.971,-0.9711,-0.9691,-0.9691,-0.9691,-0.9691,-0.98,-0.9797,-0.9781,-0.9773,-0.9758,-0.9751,-0.9733,-0.9724,-0.9716,-0.9706,-0.9707,-0.9698,-0.9713,-0.9713,-0.9692,-0.9692,-0.9692,-0.9692,-0.9692,-0.9816,-0.9813,-0.9804,-0.9791,-0.9783,-0.9765,-0.9758,-0.9745,-0.9732,-0.9733,-0.9728,-0.9727,-0.9726,-0.9731,-0.9731,-0.9731,-0.9731,-0.9732,-0.9732,-0.9837,-0.9827,-0.9823,-0.9808,-0.9802,-0.9791,-0.9772,-0.9766,-0.9755,-0.9746,-0.9746,-0.9734,-0.9717,-0.9713,-0.9732,-0.9732,-0.9732,-0.9732,-0.9732,-0.9853,-0.9848,-0.9842,-0.9835,-0.9818,-0.9811,-0.9794,-0.9782,-0.9775,-0.9773,-0.9761,-0.975,-0.9744,-0.9742,-0.9739,-0.9763,-0.9763,-0.9763,-0.9763,-0.9868,-0.9863,-0.9855,-0.9845,-0.9835,-0.9819,-0.9814,-0.98,-0.9785,-0.978,-0.9774,-0.9769,-0.9768,-0.9762,-0.976,-0.9757,-0.9785,-0.9785,-0.9785,-0.9878,-0.9872,-0.9869,-0.9854,-0.984,-0.9829,-0.9824,-0.9815,-0.9796,-0.9786,-0.9776,-0.9775,-0.9766,-0.9764,-0.9753,-0.975,-0.9744,0,0]},{"header":{"parameterUnit":"m.s-1","parameterCategory":1,"la1":30.2992,"la2":30.254,"lo1":-89.0895,"lo2":-89.0443,"dy":0.0025,"dx":0.0025,"nx":19,"ny":19,"refTime":"2026-05-15T09:00:00:Z","depth":0,"parameterNumber":3,"parameterNumberName":"V-component_of_WINDS"},"data":[0,0,0,3.9597,3.9599,3.9695,3.9695,3.9814,3.9815,0,0,0,0,0,0,0,0,0,0,0,3.9569,3.957,3.9597,3.9599,3.9695,3.9695,3.9814,3.9815,0,0,0,0,0,0,0,0,0,0,0,3.9568,3.9569,3.9571,3.96,3.9695,3.9695,3.9814,3.9742,0,0,0,0,0,0,0,0,0,0,3.9649,3.9625,3.9569,3.9571,3.96,3.9695,3.9696,3.9739,3.9746,3.977,0,3.9793,0,3.9806,3.9823,3.9824,0,0,0,3.9598,3.9618,3.9644,3.9571,3.9601,3.9695,3.9651,3.9743,3.9752,3.978,3.9795,3.9799,3.9808,3.9824,3.9824,3.9965,3.9966,0,0,3.9593,3.9586,3.9638,3.965,3.9638,3.9648,3.9654,3.9748,3.9763,3.9795,3.9802,3.981,3.9825,3.9826,3.9965,3.9965,0,0,0,3.9578,3.9582,3.9606,3.9645,3.9662,3.9651,3.9658,3.9759,3.9767,3.9803,3.9811,3.9825,3.9827,3.9964,3.9965,3.9992,0,0,0,3.9575,3.9574,3.9603,3.96,3.9661,3.9712,3.9666,3.976,3.9771,3.9811,3.9825,3.9828,3.9963,3.9964,3.9989,4.0005,0,0,0,3.9562,3.9572,3.9587,3.9599,3.9641,3.9711,3.9725,3.9763,3.9776,3.9824,3.9828,3.9963,3.9964,3.9987,4.0002,4.0038,0,0,0,3.9546,3.961,3.9587,3.9661,3.964,3.9728,3.9724,3.979,3.9834,3.9826,3.9963,3.9965,3.9987,4.0,4.0036,4.0066,4.0079,0,0,3.9622,3.9619,3.9663,3.9645,3.9735,3.9714,3.9808,3.9854,3.9864,3.993,3.9934,3.999,4.0001,4.0038,4.0156,4.0166,0,0,0,3.9684,3.9715,3.9741,3.9783,3.982,3.9852,3.9885,3.9902,3.9958,3.9898,4.0015,4.0021,4.0043,4.0057,4.0066,4.0083,3.9972,3.9972,3.9972,3.9781,3.9791,3.9863,3.9884,3.9924,3.9956,3.9989,4.0016,4.0015,4.0042,4.0061,4.0132,4.0149,4.0155,4.0173,4.008,4.008,4.008,4.008,3.9891,3.9936,3.9931,3.9999,4.0008,4.0064,4.0096,4.0093,4.0145,4.0119,4.0138,4.0107,4.0166,4.0182,4.0082,4.0082,4.0081,4.0081,4.0081,3.9954,3.9977,3.9997,4.0056,4.01,4.0118,4.0168,4.0174,4.0181,4.02,4.0219,4.0218,4.0216,4.0209,4.0209,4.0209,4.021,4.021,4.021,4.0011,4.0033,4.0074,4.0118,4.0144,4.0178,4.0209,4.0234,4.0263,4.0264,4.0264,4.0257,4.0171,4.0148,4.0214,4.0213,4.0213,4.0212,4.0212,4.0116,4.0093,4.0158,4.0184,4.0233,4.0274,4.0282,4.0331,4.0353,4.0376,4.0365,4.0301,4.0298,4.0291,4.0271,4.0365,4.0365,4.0365,4.0365,4.0168,4.0167,4.0233,4.0273,4.0313,4.0326,4.0394,4.0417,4.0438,4.0451,4.0438,4.0414,4.0407,4.0407,4.0398,4.0379,4.0499,4.0499,4.0499,4.0232,4.0234,4.0293,4.0314,4.0352,4.0383,4.0447,4.049,4.0509,4.0504,4.046,4.0454,4.0415,4.0402,4.0396,4.0381,4.0348,0,0]}]]